Temp
7 6 6 5 5 3 4 7 8 8 9 8 7 7 8 8 8 9 10 10 10 10 11 11 11 11 11 10 11 11 10 9 9 9 9 9 9 8 8 8 8 8 8 9 9 9 9 8 8
6 6 5 4 4 2 5 9 9 8 8 7 7 7 7 8 9 9 9 10 10 10 10 10 10 10 10 10 11 10 10 9 8 9 9 9 8 8 8 8 8 8 8 9 9 9 8 8 8
6 5 4 3 3 2 5 8 8 7 7 7 7 7 7 7 8 8 9 9 9 9 9 10 10 9 10 10 10 10 10 10 9 9 8 8 8 7 7 8 8 8 8 8 8 8 8 8 8
5 4 4 3 4 4 6 6 6 7 7 6 6 6 7 7 7 8 8 8 8 9 9 9 9 9 8 8 9 9 9 9 9 8 8 8 8 7 7 8 8 7 8 8 8 8 7 7 7
4 4 3 3 4 5 5 6 5 6 7 6 6 6 6 6 7 7 7 7 8 8 8 8 8 8 7 7 8 8 9 9 9 8 8 7 7 7 7 8 8 7 8 8 7 7 7 7 7
4 3 3 3 4 4 5 5 4 4 5 6 5 5 5 5 6 7 7 7 7 8 8 8 8 7 7 7 7 7 8 8 7 8 7 7 7 7 7 7 7 7 8 7 7 7 7 7 7
4 3 3 3 3 4 4 4 4 3 4 5 4 4 5 5 5 6 6 6 7 7 7 7 7 8 8 8 8 8 8 8 7 8 7 7 7 7 7 7 7 7 7 7 7 7 6 6 6
2 2 2 2 2 3 3 3 4 3 4 4 3 3 4 5 5 5 5 5 6 6 6 6 6 6 7 8 8 8 8 9 7 7 7 7 7 6 6 6 6 7 7 7 6 6 6 6 6
2 1 2 3 2 2 3 2 3 3 3 4 3 3 3 4 4 5 5 5 5 5 6 6 6 6 6 6 7 8 8 8 8 6 7 7 6 6 6 6 6 7 7 6 6 6 6 5 5
1 1 1 2 1 1 1 2 3 3 3 4 3 3 3 4 3 4 4 5 5 5 5 5 5 5 5 6 6 6 7 8 7 6 6 6 6 6 6 6 6 7 6 6 6 5 5 5 5
0 1 1 -0 -0 -1 -0 1 1 2 3 3 3 3 3 3 4 3 4 4 4 4 4 4 4 5 5 4 5 5 5 7 7 6 6 6 6 6 6 6 6 6 6 6 6 5 5 5 5
-1 -1 -1 -1 -2 -1 -1 -1 1 0 2 3 3 3 3 3 3 3 3 2 3 4 4 4 4 4 4 4 4 4 4 5 6 6 6 6 6 7 6 6 6 6 6 6 5 5 5 5 5
-1 -1 -1 -2 -2 -1 -1 -0 -1 1 1 2 3 3 2 2 2 2 1 2 2 3 4 4 4 4 4 4 5 4 5 3 4 5 5 5 6 6 5 6 6 6 6 5 5 5 5 5 5
-2 -2 -2 -2 -2 -2 -2 -1 -2 -1 -1 0 2 2 3 2 1 2 1 1 2 2 3 3 3 4 3 4 4 5 4 3 2 4 4 5 5 5 6 5 6 6 6 5 5 5 5 4 5
-3 -3 -3 -3 -2 -3 -3 -2 -2 -1 -1 -1 0 1 2 2 1 1 1 1 1 2 3 3 3 4 4 3 4 6 6 7 3 3 3 5 5 6 5 5 6 6 5 5 5 4 4 5 5
-5 -5 -5 -3 -3 -3 -5 -3 -2 -2 -3 -3 -1 0 1 1 1 1 1 1 1 2 2 2 2 3 3 3 4 4 4 5 4 4 4 5 5 5 5 4 5 5 5 5 4 4 4 4 5
-6 -5 -5 -4 -4 -4 -5 -4 -2 -2 -3 -4 -1 -1 0 1 1 1 1 1 1 1 2 2 2 2 2 3 3 2 2 3 5 4 4 4 5 5 4 4 5 5 5 5 5 4 4 4 5
-6 -6 -6 -6 -5 -5 -5 -3 -2 -2 -3 -3 -3 -2 -1 -0 1 0 1 1 1 2 2 2 3 3 2 2 2 2 2 3 3 3 4 3 5 5 5 4 4 4 4 4 5 4 4 5 5
-6 -6 -6 -3 -4 -6 -3 -3 -2 -2 -3 -3 -3 -2 -1 0 1 0 1 2 2 2 2 2 3 2 2 2 2 2 2 3 3 3 3 3 3 4 4 4 4 4 4 4 5 4 4 5 5
-6 -6 -4 -3 -4 -5 -5 -3 -2 -2 -2 -2 -2 -2 -1 -0 0 1 1 1 1 1 1 2 2 2 2 2 2 2 2 2 4 2 3 2 2 2 2 3 3 4 4 4 4 4 4 4 4
-4 -5 -3 -4 -4 -4 -4 -3 -2 -2 -2 -2 -2 -1 -1 -1 -0 0 1 1 0 1 1 1 2 2 3 2 2 2 2 2 3 3 2 3 2 1 2 3 3 4 4 4 4 4 4 4 4
-5 -3 -4 -4 -4 -4 -4 -5 -2 -3 -2 -2 -2 -1 -1 -0 -0 0 -0 0 0 0 1 2 2 2 2 3 2 2 2 3 3 4 2 2 2 2 1 2 3 3 3 4 4 4 3 3 3
-2 -3 -3 -3 -4 -4 -4 -4 -3 -2 -2 -2 -2 -1 -1 -0 -0 -1 0 -1 0 -0 -0 1 1 1 2 1 1 2 2 2 3 2 2 2 2 1 1 1 1 1 3 2 3 3 3 3 2
-3 -3 -3 -3 -3 -4 -2 -3 -3 -3 -4 -3 -2 -1 -1 -0 -0 -1 -0 -1 -0 -0 0 1 1 1 2 0 2 1 2 1 1 2 2 1 1 1 1 1 1 1 1 2 1 2 1 2 1
-2 -3 -3 -3 -4 -3 -3 -3 -4 -4 -3 -4 -2 -2 -1 -1 -1 -1 -0 -1 0 -0 0 1 0 1 1 1 0 1 1 0 1 1 1 1 1 1 1 1 1 1 1 1 1 1 1 1 1
-3 -3 -3 -1 -2 -4 -2 -3 -4 -4 -4 -3 -2 -2 -2 -1 -1 -1 -1 -0 -1 -1 -0 -0 -0 -0 -0 -0 -0 0 -0 0 0 0 1 1 1 0 0 1 1 1 0 0 1 0 1 1 1
-2 -3 -2 -2 -2 -2 -3 -3 -4 -4 -4 -3 -2 -2 -2 -2 -2 -1 -1 -1 -1 -1 -1 -1 -1 -1 -1 -0 -0 -0 -0 0 0 0 0 1 1 1 0 1 1 1 1 1 1 0 0 1 0
-3 -3 -3 -2 -2 -1 -3 -3 -3 -4 -3 -2 -2 -2 -2 -2 -2 -1 -1 -1 -1 -1 -0 -1 -0 -0 -0 -0 -0 0 0 0 1 0 -0 -0 0 0 0 1 1 1 1 0 0 1 1 1 1
-2 -2 -2 -1 -1 -2 -2 -3 -3 -3 -3 -3 -2 -2 -2 -2 -2 -1 -1 -1 -1 -1 -2 -1 -1 -1 -0 0 0 0 0 0 1 1 0 0 0 0 0 1 1 1 1 1 1 1 1 1 1
-1 -1 -0 0 -0 -1 -2 -3 -3 -2 -2 -2 -2 -2 -2 -2 -1 -1 -1 -1 -2 -2 -1 -1 -0 -0 0 0 0 0 1 1 1 1 1 1 1 1 1 1 1 1 1 1 1 1 1 1 1
Height
3114 3114 3117 3119 3126 3119 3119 3121 3124 3126 3128 3132 3135 3136 3137 3136 3137 3139 3137 3141 3141 3143 3144 3144 3145 3148 3149 3150 3151 3152 3151 3152 3153 3154 3154 3156 3157 3159 3162 3164 3165 3167 3168 3168 3168 3167 3167 3167 3167
3109 3112 3114 3114 3117 3114 3117 3118 3121 3127 3130 3129 3131 3132 3132 3133 3133 3132 3136 3138 3140 3141 3142 3142 3143 3145 3147 3147 3149 3150 3151 3150 3151 3153 3154 3155 3156 3158 3161 3163 3165 3167 3167 3168 3168 3167 3167 3167 3168
3105 3109 3113 3112 3109 3108 3113 3117 3121 3125 3126 3126 3128 3127 3129 3131 3131 3131 3135 3135 3137 3139 3140 3141 3141 3141 3143 3145 3146 3147 3149 3150 3149 3151 3153 3154 3156 3157 3160 3162 3164 3166 3167 3168 3167 3167 3167 3167 3168
3103 3106 3109 3105 3103 3106 3111 3115 3118 3120 3122 3122 3124 3125 3126 3129 3130 3130 3131 3133 3134 3136 3138 3139 3139 3140 3141 3142 3143 3144 3145 3147 3148 3149 3151 3153 3155 3157 3158 3161 3163 3164 3166 3167 3167 3167 3167 3167 3168
3100 3102 3102 3098 3100 3104 3109 3113 3114 3116 3118 3121 3121 3121 3121 3124 3126 3126 3128 3129 3131 3133 3134 3135 3136 3137 3138 3139 3140 3142 3142 3144 3145 3147 3148 3151 3153 3155 3157 3159 3162 3163 3165 3166 3167 3167 3167 3167 3167
3099 3100 3098 3095 3097 3101 3106 3113 3111 3111 3113 3115 3117 3117 3118 3119 3121 3122 3123 3125 3127 3129 3131 3132 3131 3133 3134 3135 3136 3137 3139 3141 3142 3144 3146 3149 3152 3154 3155 3158 3160 3162 3163 3165 3166 3167 3167 3167 3167
3096 3097 3094 3094 3094 3096 3102 3108 3106 3106 3107 3110 3110 3111 3115 3116 3117 3118 3118 3120 3122 3124 3126 3127 3127 3130 3131 3132 3134 3134 3135 3139 3140 3141 3145 3147 3149 3151 3153 3156 3158 3160 3162 3163 3165 3166 3166 3166 3167
3093 3094 3090 3091 3090 3091 3099 3100 3102 3101 3102 3105 3106 3108 3108 3111 3113 3114 3114 3117 3118 3119 3121 3122 3124 3126 3127 3128 3130 3132 3133 3134 3136 3139 3143 3145 3147 3148 3151 3154 3156 3158 3160 3162 3163 3164 3165 3165 3166
3091 3091 3085 3086 3088 3088 3093 3093 3096 3095 3096 3101 3101 3102 3104 3105 3108 3110 3112 3113 3115 3115 3117 3119 3121 3123 3123 3124 3127 3129 3130 3131 3133 3136 3139 3141 3143 3145 3149 3152 3154 3157 3158 3160 3161 3163 3164 3164 3165
3086 3083 3082 3084 3084 3084 3085 3087 3089 3089 3089 3093 3096 3098 3099 3099 3102 3106 3108 3109 3111 3112 3113 3115 3115 3116 3119 3120 3123 3126 3127 3126 3130 3131 3136 3138 3140 3143 3146 3148 3151 3154 3156 3157 3158 3160 3162 3163 3164
3081 3077 3080 3079 3080 3079 3078 3079 3082 3083 3082 3087 3089 3092 3094 3095 3097 3099 3103 3104 3106 3108 3109 3110 3111 3111 3112 3114 3116 3119 3122 3124 3122 3127 3129 3133 3137 3139 3141 3143 3146 3150 3152 3155 3156 3158 3160 3161 3162
3076 3075 3075 3074 3075 3073 3072 3071 3072 3074 3074 3080 3081 3085 3088 3090 3090 3093 3097 3099 3100 3101 3104 3105 3107 3108 3107 3108 3111 3112 3119 3120 3119 3120 3122 3126 3131 3132 3130 3137 3142 3146 3149 3152 3154 3156 3158 3159 3160
3072 3071 3070 3068 3068 3069 3069 3066 3066 3065 3071 3073 3075 3079 3080 3083 3086 3087 3091 3093 3094 3096 3097 3098 3100 3102 3103 3102 3106 3107 3110 3111 3115 3115 3117 3118 3123 3126 3129 3133 3137 3142 3146 3149 3151 3153 3156 3158 3158
3067 3065 3064 3063 3065 3063 3060 3057 3059 3056 3063 3065 3069 3072 3075 3077 3079 3080 3082 3084 3086 3089 3091 3093 3095 3097 3096 3095 3096 3099 3097 3102 3102 3110 3114 3114 3115 3117 3120 3120 3133 3138 3142 3146 3149 3151 3153 3155 3156
3062 3060 3058 3059 3058 3055 3056 3043 3045 3052 3053 3051 3055 3059 3063 3069 3073 3075 3077 3077 3079 3082 3084 3086 3088 3090 3090 3088 3087 3089 3086 3088 3092 3098 3106 3107 3108 3109 3118 3121 3128 3134 3138 3142 3145 3147 3149 3151 3153
3058 3056 3051 3054 3053 3052 3050 3035 3044 3045 3042 3039 3041 3048 3052 3060 3066 3069 3070 3071 3073 3076 3080 3081 3081 3083 3083 3083 3081 3079 3076 3072 3085 3089 3096 3100 3104 3105 3112 3116 3124 3130 3133 3137 3141 3143 3146 3148 3149
3054 3052 3050 3049 3049 3048 3046 3036 3038 3039 3036 3031 3032 3037 3042 3049 3057 3062 3064 3065 3068 3070 3073 3075 3077 3078 3076 3075 3073 3071 3072 3070 3078 3078 3083 3093 3100 3104 3105 3110 3118 3124 3129 3133 3136 3139 3142 3144 3146
3052 3049 3048 3046 3047 3043 3040 3033 3032 3032 3028 3028 3027 3029 3033 3040 3049 3055 3058 3060 3063 3064 3067 3069 3071 3071 3069 3070 3068 3065 3066 3064 3071 3072 3077 3084 3093 3098 3103 3107 3111 3118 3123 3128 3131 3135 3137 3140 3141
3049 3048 3044 3041 3041 3036 3032 3029 3027 3026 3025 3025 3025 3027 3031 3036 3045 3049 3052 3056 3058 3058 3059 3062 3063 3065 3065 3064 3063 3062 3061 3061 3066 3070 3072 3074 3084 3090 3097 3103 3108 3113 3118 3123 3127 3130 3132 3134 3135
3047 3044 3038 3033 3035 3034 3029 3023 3023 3021 3023 3024 3025 3027 3029 3034 3040 3044 3047 3049 3051 3053 3053 3054 3057 3059 3058 3060 3059 3059 3057 3057 3061 3065 3066 3072 3076 3084 3091 3097 3102 3107 3112 3117 3120 3123 3126 3128 3129
3044 3041 3037 3035 3031 3028 3026 3021 3021 3021 3021 3023 3025 3027 3029 3033 3038 3042 3044 3045 3045 3047 3047 3049 3051 3051 3052 3055 3054 3054 3053 3053 3055 3059 3060 3066 3072 3081 3086 3092 3099 3103 3108 3112 3116 3118 3119 3121 3122
3038 3038 3036 3034 3033 3030 3027 3025 3021 3020 3021 3023 3025 3027 3028 3032 3036 3038 3039 3040 3042 3043 3043 3044 3045 3045 3045 3048 3049 3047 3048 3049 3053 3056 3059 3063 3068 3072 3079 3087 3092 3097 3101 3105 3108 3110 3112 3113 3114
3037 3035 3035 3033 3032 3031 3027 3029 3022 3023 3023 3023 3025 3027 3028 3030 3032 3033 3036 3037 3038 3039 3039 3039 3040 3039 3040 3039 3043 3040 3040 3044 3048 3051 3057 3059 3065 3067 3073 3077 3081 3086 3091 3094 3096 3099 3102 3103 3104
3035 3034 3033 3031 3031 3030 3024 3027 3024 3024 3022 3022 3023 3025 3026 3028 3028 3029 3031 3031 3034 3034 3035 3036 3036 3038 3037 3033 3038 3037 3039 3042 3046 3049 3052 3057 3061 3064 3068 3071 3075 3077 3081 3085 3090 3090 3092 3093 3093
3034 3033 3032 3030 3031 3027 3025 3027 3025 3023 3021 3022 3023 3024 3024 3025 3026 3028 3026 3028 3030 3031 3032 3032 3032 3034 3037 3034 3036 3036 3038 3041 3047 3049 3051 3053 3056 3059 3062 3065 3068 3071 3074 3075 3079 3082 3084 3084 3085
3033 3032 3030 3024 3025 3027 3026 3026 3024 3022 3021 3021 3023 3023 3023 3023 3025 3025 3023 3025 3027 3029 3030 3030 3030 3031 3035 3034 3035 3039 3040 3042 3045 3046 3047 3050 3052 3055 3059 3062 3062 3064 3067 3070 3072 3074 3075 3075 3078
3032 3030 3029 3027 3026 3027 3027 3026 3023 3022 3020 3021 3021 3020 3021 3021 3023 3024 3025 3026 3027 3029 3031 3033 3034 3035 3036 3038 3038 3042 3043 3044 3043 3044 3047 3047 3048 3050 3055 3058 3059 3059 3061 3063 3064 3066 3067 3066 3068
3033 3032 3030 3027 3026 3026 3028 3026 3025 3022 3021 3021 3022 3023 3023 3023 3024 3025 3026 3028 3030 3032 3034 3037 3039 3040 3041 3042 3042 3044 3045 3045 3042 3044 3046 3047 3048 3049 3050 3053 3054 3056 3056 3055 3058 3060 3062 3062 3063
3034 3030 3029 3028 3027 3026 3029 3033 3028 3024 3023 3023 3025 3025 3026 3026 3027 3028 3030 3031 3033 3037 3038 3040 3042 3043 3044 3045 3045 3045 3043 3043 3044 3045 3046 3044 3046 3050 3052 3051 3052 3051 3052 3052 3052 3053 3053 3054 3056
3034 3030 3027 3027 3029 3026 3029 3036 3030 3028 3028 3029 3029 3030 3030 3031 3032 3033 3034 3037 3039 3042 3043 3044 3045 3044 3044 3045 3045 3044 3044 3043 3042 3042 3039 3042 3044 3044 3045 3045 3045 3045 3045 3046 3045 3046 3046 3047 3046
Wind_Speed
17 17 15 17 13 11 18 20 22 7 7 10 9 15 18 22 20 18 18 15 11 14 15 15 11 13 12 13 15 14 13 12 13 14 15 16 17 18 18 16 15 13 10 8 6 4 4 5 5
19 18 16 19 17 17 18 24 23 16 5 13 17 15 15 20 23 28 24 22 16 9 13 15 14 16 17 17 17 17 15 14 14 15 17 18 19 19 19 17 16 14 12 10 8 6 6 6 5
20 19 18 13 21 24 20 25 19 10 22 18 17 17 15 15 19 25 24 20 14 10 14 15 16 17 19 19 20 19 17 16 16 16 16 19 20 20 19 18 18 16 14 12 10 8 8 7 5
20 20 20 23 23 16 23 22 9 19 19 18 14 13 10 13 19 22 17 18 14 18 15 13 14 18 21 20 22 20 18 17 17 17 19 19 21 22 21 19 18 17 15 13 12 10 9 7 6
20 23 24 26 29 30 18 9 17 22 22 17 16 15 13 13 21 25 24 19 18 19 20 18 15 15 21 23 23 22 19 18 18 18 19 20 23 22 23 20 19 18 17 15 12 11 10 8 7
19 23 21 29 35 30 23 18 15 16 24 22 18 15 14 9 19 23 27 27 24 24 23 21 24 19 21 23 23 22 20 17 17 19 20 21 23 22 24 22 21 20 18 16 14 12 10 9 8
17 22 28 31 32 29 24 22 26 23 23 26 18 19 18 9 13 20 22 24 30 28 26 29 26 29 31 25 26 26 24 19 16 17 20 22 25 26 25 24 22 21 19 17 15 13 11 10 9
18 22 29 32 33 35 23 21 29 30 30 26 16 10 14 15 11 16 23 21 25 26 26 28 25 29 27 32 29 27 25 24 19 17 21 26 28 29 27 25 24 23 21 19 16 14 13 11 10
18 23 29 31 28 27 23 28 28 32 34 29 24 18 15 18 20 18 20 23 23 26 27 28 30 28 26 31 32 33 29 26 24 22 26 29 32 31 28 27 26 25 23 21 18 15 14 12 10
21 27 26 28 26 27 26 27 30 37 37 37 30 23 20 21 19 19 25 27 26 24 27 27 31 27 27 29 32 37 34 32 31 24 27 30 31 32 30 30 28 26 25 23 20 17 15 13 11
23 31 26 28 27 28 31 31 30 34 42 39 39 31 22 19 23 21 22 31 27 28 27 28 30 32 31 28 25 34 33 35 37 33 27 32 33 34 31 34 30 28 27 25 22 19 16 14 12
24 26 26 28 27 31 34 36 36 36 41 43 42 36 29 21 21 21 24 26 28 30 30 29 34 36 35 39 40 45 39 37 37 40 36 31 34 37 43 37 30 29 28 25 23 20 18 15 12
22 25 26 29 30 30 31 36 38 42 38 40 46 40 33 23 23 19 14 22 27 29 34 37 37 40 43 45 44 47 50 48 34 36 40 35 42 39 43 32 30 31 30 27 25 22 18 16 14
22 25 26 29 27 28 32 34 32 41 36 41 42 45 41 30 21 25 18 17 23 25 33 35 36 33 36 43 48 48 49 51 32 29 37 48 40 43 35 30 30 34 32 29 26 23 20 17 16
23 28 28 25 25 28 23 41 39 34 33 37 44 48 48 39 29 24 24 21 20 28 35 36 35 43 40 37 38 46 50 61 62 32 38 51 47 35 36 36 34 35 34 31 29 27 23 21 18
22 26 29 19 15 16 20 40 23 10 17 32 40 48 50 44 34 31 28 26 23 32 32 25 35 39 35 28 33 36 40 46 59 48 40 52 52 46 35 32 34 37 36 34 31 29 25 22 19
16 17 20 20 10 13 13 30 20 26 26 21 30 40 51 49 38 32 29 25 24 31 31 31 31 32 28 27 29 30 30 29 50 38 44 52 47 50 41 38 37 40 38 35 34 31 27 25 22
10 16 23 24 9 22 30 33 27 20 17 14 17 26 44 45 40 31 25 30 27 34 36 34 39 35 27 29 26 21 26 24 25 33 48 45 45 40 44 39 33 40 40 38 37 33 30 26 24
13 20 27 24 23 28 28 28 17 11 16 16 13 14 23 30 38 29 29 31 37 37 29 29 34 28 29 28 28 26 24 19 26 34 36 44 35 37 37 42 40 42 41 39 37 34 31 28 27
17 23 29 31 18 16 22 30 20 8 14 4 6 11 10 20 26 35 36 31 36 28 25 25 26 29 24 32 26 22 24 20 26 35 34 43 42 37 37 39 41 42 42 41 38 35 31 30 28
19 23 25 27 28 19 18 23 7 8 10 10 7 6 10 15 20 23 26 28 28 27 26 24 25 29 26 31 27 26 27 20 26 27 33 37 38 33 33 35 37 38 39 38 36 34 32 32 29
21 12 16 15 9 7 9 5 2 9 9 5 5 4 5 15 19 22 21 28 26 23 21 24 25 26 29 32 35 29 28 33 36 26 37 33 37 41 38 35 36 37 36 36 36 35 35 33 32
13 11 9 10 7 9 8 8 4 9 11 11 11 13 13 15 16 18 20 27 19 15 15 17 21 25 28 34 26 17 30 31 34 32 38 34 34 37 38 39 40 39 38 34 33 32 31 31 34
10 11 13 8 6 4 6 11 4 4 11 11 14 12 14 17 18 18 16 15 13 14 14 15 18 19 20 23 22 21 17 25 21 25 30 26 35 31 31 38 43 36 38 32 40 35 35 36 36
9 15 3 2 2 2 5 4 6 8 9 9 8 8 12 12 14 15 20 16 20 15 12 12 20 19 14 14 29 10 22 17 21 27 28 32 22 31 30 34 32 41 41 38 38 39 41 43 38
11 11 3 3 1 1 3 2 4 11 4 9 9 9 10 10 14 17 11 14 15 13 15 14 12 15 8 7 16 19 7 27 19 18 27 26 32 28 20 19 25 45 42 47 46 50 47 49 43
8 9 7 1 3 2 2 6 5 4 4 9 11 9 10 6 11 17 11 17 17 20 17 17 16 13 11 9 9 5 4 4 6 21 15 11 19 34 28 20 15 18 23 25 25 24 22 25 28
9 11 4 4 1 2 4 4 10 5 3 7 8 6 5 10 14 15 14 19 13 15 14 11 10 9 7 7 6 5 4 2 3 6 5 3 8 15 19 19 20 23 26 25 25 27 28 29 28
12 8 5 4 1 1 2 4 15 6 4 5 8 12 10 13 12 14 14 15 19 16 14 11 10 9 7 5 4 5 7 6 5 5 7 9 12 16 18 20 23 24 25 26 27 30 30 30 31
18 14 3 1 2 6 5 5 12 9 10 9 10 8 10 8 12 17 20 21 20 15 13 10 7 5 3 4 4 6 8 10 10 11 11 13 16 19 23 25 27 28 29 30 31 31 32 33 33
Wind_Direction
239 236 234 230 223 218 230 235 228 228 242 192 234 244 252 264 258 261 265 284 262 220 230 235 236 256 259 256 255 247 237 231 232 232 228 223 215 212 206 203 206 208 216 215 215 218 203 178 161
235 235 225 224 232 218 230 248 240 225 168 186 212 232 258 265 266 268 273 276 274 265 230 232 242 250 254 251 251 246 243 233 224 230 225 222 217 213 210 209 208 209 214 208 209 209 201 194 179
231 230 227 225 237 232 240 249 255 208 211 231 246 253 263 265 277 270 265 263 266 249 243 235 242 242 244 246 247 245 242 238 232 227 217 216 218 214 211 213 212 207 209 204 208 202 200 200 195
232 232 232 233 234 247 245 244 241 202 193 214 242 266 278 280 271 270 255 254 255 260 253 254 255 256 247 238 241 238 239 239 235 228 219 215 212 216 212 212 210 206 206 206 207 205 203 204 203
229 232 234 244 246 247 246 263 234 227 211 212 245 257 260 270 266 263 262 257 249 255 251 252 254 252 239 232 235 239 234 237 236 230 219 213 207 216 215 212 207 206 203 208 209 206 207 206 206
235 232 238 242 250 252 250 241 232 226 218 225 255 263 261 261 261 258 261 267 265 257 259 251 248 235 231 228 224 229 232 233 232 227 216 210 206 212 210 212 205 207 206 208 211 210 211 212 206
244 244 246 251 254 258 258 237 235 238 229 221 254 271 256 271 259 255 249 252 263 265 261 257 252 253 249 240 234 231 227 228 223 225 206 209 205 213 211 209 208 207 208 209 212 211 212 212 206
240 242 249 253 256 259 253 247 237 237 231 226 254 252 249 250 254 263 256 255 256 254 251 250 252 252 248 243 235 233 229 220 207 215 202 204 208 213 213 210 209 209 208 210 209 211 211 209 207
244 241 252 257 262 265 262 246 226 232 239 229 238 255 261 247 257 257 251 253 254 254 252 257 249 245 248 242 243 236 231 221 205 207 206 210 214 216 216 212 211 213 210 210 208 211 213 211 215
244 252 258 266 268 268 264 253 245 235 234 226 234 241 245 240 233 267 255 254 251 249 253 249 247 247 248 247 244 243 230 215 206 201 218 219 220 222 217 213 213 214 215 210 205 208 210 213 219
250 255 268 266 266 264 265 256 253 245 233 231 231 230 238 242 231 234 247 254 258 257 254 256 254 253 254 256 246 232 230 222 202 209 205 219 226 224 221 210 212 214 215 213 210 207 209 214 223
251 258 264 265 259 256 256 259 250 243 243 230 234 237 236 238 237 238 249 244 253 256 254 259 254 255 259 258 259 264 255 229 210 209 205 215 225 230 215 209 214 214 215 213 213 208 212 218 226
265 270 265 267 267 272 273 266 264 257 248 244 238 232 236 241 240 232 257 265 260 258 257 258 257 261 263 260 258 260 263 241 226 216 210 219 220 226 227 216 214 212 213 213 214 211 214 220 230
270 273 275 272 278 278 272 271 265 259 255 247 241 239 232 236 239 237 244 255 252 256 249 254 253 264 272 264 264 262 266 260 235 230 228 218 221 220 211 208 215 214 212 215 214 214 217 225 234
275 279 275 277 283 275 276 266 264 279 265 250 237 236 234 230 233 235 244 252 262 259 258 264 263 259 266 263 269 264 267 258 246 255 256 223 222 213 226 210 216 216 213 215 214 216 219 227 235
277 275 287 301 280 282 260 276 292 289 287 259 236 226 232 229 233 237 245 252 261 259 260 266 261 260 253 258 270 275 275 256 251 254 258 219 218 222 210 218 212 216 214 216 216 220 224 231 239
275 282 289 299 273 281 270 288 288 299 289 275 237 227 227 229 224 232 241 249 260 264 263 268 269 253 257 260 273 268 254 242 235 264 231 217 220 221 225 212 209 216 216 218 219 223 228 235 240
289 291 291 287 293 290 291 285 295 296 272 258 242 240 229 232 219 230 238 245 260 265 268 250 253 264 265 260 261 254 242 231 255 238 219 210 218 221 221 230 218 216 217 218 221 224 230 237 243
296 289 291 297 303 300 292 292 312 288 243 251 252 241 225 231 224 228 242 245 255 264 252 252 253 262 261 259 254 243 232 227 238 257 218 204 214 216 218 217 221 219 219 222 225 229 234 240 245
295 296 298 307 319 310 298 297 306 247 229 225 254 242 224 199 211 226 238 245 256 254 250 252 261 257 271 252 247 231 235 229 239 261 225 211 204 207 214 216 220 218 219 223 226 231 237 242 246
291 288 310 303 308 305 302 295 289 231 192 198 195 228 212 213 222 227 241 250 251 253 257 259 263 259 259 249 244 242 231 211 218 263 211 208 200 208 212 214 217 218 221 225 229 234 238 242 246
298 325 311 317 314 312 326 291 283 209 220 233 234 276 213 215 222 234 254 258 253 250 256 253 250 256 263 255 252 249 214 206 210 230 219 220 206 199 201 207 212 219 221 224 230 233 238 239 240
296 319 309 295 268 282 263 276 294 243 254 253 236 230 222 222 229 235 253 247 219 249 244 257 243 259 266 261 232 209 226 224 222 219 203 212 207 214 207 208 210 213 218 217 220 225 231 234 238
303 298 295 260 241 242 248 204 310 267 260 246 237 238 240 251 246 238 244 256 238 238 250 240 240 243 275 216 217 224 218 209 213 213 208 225 214 215 214 221 218 216 219 221 221 232 235 242 252
296 272 279 182 208 282 147 194 271 288 266 249 248 238 253 245 226 242 234 230 197 215 212 208 218 216 222 195 215 191 212 212 202 215 225 219 214 216 232 234 226 229 222 225 233 244 244 249 257
309 309 274 313 169 249 175 291 286 297 253 220 217 225 217 208 219 214 196 189 171 182 151 132 117 157 114 169 207 224 224 225 226 237 218 220 230 226 229 252 249 236 237 247 248 250 257 251 252
338 340 4 296 82 110 327 348 341 343 213 220 217 229 233 145 164 180 168 166 120 107 95 89 87 85 76 63 56 48 15 17 20 224 219 204 229 237 220 229 235 232 232 233 234 244 247 243 244
350 330 328 342 44 68 354 18 4 0 172 184 193 162 118 141 135 132 153 131 122 111 105 92 89 84 72 60 49 30 16 6 1 325 307 268 254 227 239 227 248 240 239 240 239 245 252 255 254
8 8 283 291 260 154 59 351 347 39 120 163 163 133 121 126 118 126 121 123 114 86 79 79 70 65 56 41 9 334 332 332 306 272 258 260 263 259 257 256 259 256 256 257 256 260 258 256 256
29 11 350 295 119 90 104 15 54 62 79 107 108 104 102 114 115 105 90 77 71 70 64 64 61 50 26 346 326 309 299 297 294 288 285 271 262 258 260 260 260 260 259 258 257 258 259 259 258